• In Romania
  • List of Countries
  • For 7 days
  • Water Temperature
  • Satellite Maps
  • Weather Map
  • Weather Widgets
  • user-avatar
    Login

    Hourly Weather Mingachevir

    Today, 28 May, Sunday

    Time Temperature Precipitation Wind Pressure Humidity
    00:00 +19°C° 0.3 mm 1 mps 750 mmHg 75%
    01:00 +19°C° 0 mm 1 mps 750 mmHg 75%
    02:00 +19°C° 0 mm 1 mps 750 mmHg 74%
    03:00 +18°C° 0 mm 2 mps 750 mmHg 64%
    04:00 +18°C° 0 mm 2 mps 750 mmHg 62%
    05:00 +19°C° 0 mm 2 mps 750 mmHg 60%
    06:00 +20°C° 0 mm 2 mps 751 mmHg 59%
    07:00 +23°C° 0 mm 2 mps 750 mmHg 51%
    08:00 +25°C° 0 mm 2 mps 750 mmHg 43%
    09:00 +27°C° 0 mm 2 mps 750 mmHg 35%
    10:00 +28°C° 0 mm 2 mps 750 mmHg 34%
    11:00 +29°C° 0 mm 2 mps 750 mmHg 32%
    12:00 +30°C° 0 mm 2 mps 749 mmHg 31%
    13:00 +31°C° 0 mm 2 mps 749 mmHg 30%
    14:00 +31°C° 0 mm 2 mps 749 mmHg 30%
    15:00 +32°C° 0 mm 2 mps 749 mmHg 29%
    16:00 +31°C° 0.1 mm 2 mps 749 mmHg 33%
    17:00 +30°C° 0.1 mm 2 mps 749 mmHg 37%
    18:00 +29°C° 0.1 mm 2 mps 750 mmHg 41%
    19:00 +27°C° 0.4 mm 2 mps 750 mmHg 49%
    20:00 +24°C° 0.4 mm 2 mps 751 mmHg 57%
    21:00 +20°C° 0.4 mm 2 mps 752 mmHg 65%
    22:00 +20°C° 0.1 mm 2 mps 752 mmHg 69%
    23:00 +20°C° 0.1 mm 1 mps 753 mmHg 73%

    Tomorrow, 29 May, Monday

    Time Temperature Precipitation Wind Pressure Humidity
    00:00 +19°C° 0.1 mm 1 mps 753 mmHg 77%
    01:00 +19°C° 0 mm 1 mps 754 mmHg 79%
    02:00 +18°C° 0 mm 1 mps 754 mmHg 80%
    03:00 +18°C° 0 mm 1 mps 754 mmHg 81%
    04:00 +17°C° 0 mm 0 mps 754 mmHg 76%
    05:00 +18°C° 0 mm 0 mps 754 mmHg 72%
    06:00 +19°C° 0 mm 0 mps 755 mmHg 68%
    07:00 +23°C° 0 mm 1 mps 755 mmHg 61%
    08:00 +25°C° 0 mm 1 mps 755 mmHg 55%
    09:00 +26°C° 0 mm 1 mps 755 mmHg 48%
    10:00 +27°C° 0 mm 2 mps 755 mmHg 46%
    11:00 +28°C° 0 mm 2 mps 754 mmHg 43%
    12:00 +29°C° 0 mm 3 mps 754 mmHg 41%
    13:00 +30°C° 0.1 mm 3 mps 754 mmHg 40%
    14:00 +32°C° 0.1 mm 4 mps 754 mmHg 40%
    15:00 +32°C° 0.1 mm 4 mps 753 mmHg 39%
    16:00 +30°C° 0 mm 5 mps 753 mmHg 41%
    17:00 +29°C° 0 mm 5 mps 754 mmHg 43%
    18:00 +28°C° 0 mm 5 mps 754 mmHg 45%
    19:00 +26°C° 0 mm 5 mps 754 mmHg 50%
    20:00 +23°C° 0 mm 5 mps 755 mmHg 55%
    21:00 +21°C° 0 mm 4 mps 756 mmHg 59%
    22:00 +20°C° 0 mm 4 mps 756 mmHg 62%
    23:00 +19°C° 0 mm 3 mps 756 mmHg 65%

    Day after tomorrow, 30 May, Tuesday

    Time Temperature Precipitation Wind Pressure Humidity
    00:00 +18°C° 0 mm 2 mps 755 mmHg 68%
    01:00 +18°C° 0 mm 2 mps 755 mmHg 70%
    02:00 +17°C° 0 mm 2 mps 755 mmHg 73%
    03:00 +18°C° 0 mm 1 mps 755 mmHg 75%
    04:00 +19°C° 0 mm 1 mps 755 mmHg 73%
    05:00 +20°C° 0 mm 1 mps 754 mmHg 70%
    06:00 +21°C° 0 mm 1 mps 754 mmHg 67%
    07:00 +22°C° 0 mm 1 mps 754 mmHg 61%
    08:00 +24°C° 0 mm 1 mps 754 mmHg 55%
    09:00 +25°C° 0 mm 1 mps 753 mmHg 49%
    10:00 +27°C° 0 mm 1 mps 753 mmHg 45%
    11:00 +28°C° 0 mm 1 mps 752 mmHg 42%
    12:00 +30°C° 0 mm 2 mps 751 mmHg 38%
    13:00 +30°C° 0 mm 2 mps 751 mmHg 37%
    14:00 +31°C° 0 mm 2 mps 750 mmHg 35%
    15:00 +32°C° 0 mm 2 mps 750 mmHg 34%
    16:00 +31°C° 0 mm 2 mps 750 mmHg 36%
    17:00 +31°C° 0 mm 1 mps 750 mmHg 37%
    18:00 +31°C° 0 mm 1 mps 750 mmHg 39%
    19:00 +28°C° 0 mm 1 mps 750 mmHg 44%
    20:00 +26°C° 0 mm 1 mps 751 mmHg 48%
    21:00 +24°C° 0 mm 2 mps 751 mmHg 53%
    22:00 +23°C° 0 mm 2 mps 751 mmHg 52%
    23:00 +23°C° 0 mm 2 mps 751 mmHg 52%

    31 May, Wednesday

    Time Temperature Precipitation Wind Pressure Humidity
    00:00 +23°C° 0 mm 2 mps 751 mmHg 52%
    01:00 +21°C° 0 mm 2 mps 751 mmHg 52%
    02:00 +21°C° 0 mm 1 mps 751 mmHg 53%
    03:00 +21°C° 0 mm 1 mps 751 mmHg 53%
    04:00 +22°C° 0 mm 1 mps 751 mmHg 51%
    05:00 +23°C° 0 mm 1 mps 751 mmHg 49%
    06:00 +25°C° 0 mm 1 mps 751 mmHg 48%
    07:00 +27°C° 0 mm 1 mps 751 mmHg 41%
    08:00 +28°C° 0 mm 1 mps 751 mmHg 35%
    09:00 +30°C° 0 mm 1 mps 751 mmHg 28%
    10:00 +32°C° 0 mm 1 mps 750 mmHg 27%
    11:00 +34°C° 0 mm 2 mps 750 mmHg 25%
    12:00 +35°C° 0 mm 2 mps 749 mmHg 24%
    13:00 +35°C° 0 mm 2 mps 749 mmHg 24%
    14:00 +36°C° 0 mm 3 mps 748 mmHg 24%
    15:00 +36°C° 0 mm 3 mps 748 mmHg 24%
    16:00 +35°C° 0 mm 3 mps 748 mmHg 29%
    17:00 +34°C° 0 mm 3 mps 748 mmHg 33%
    18:00 +32°C° 0 mm 4 mps 748 mmHg 37%
    19:00 +29°C° 0 mm 4 mps 748 mmHg 41%
    20:00 +27°C° 0 mm 4 mps 749 mmHg 45%
    21:00 +25°C° 0 mm 4 mps 749 mmHg 49%
    22:00 +24°C° 0.4 mm 3 mps 749 mmHg 54%
    23:00 +23°C° 0.4 mm 2 mps 749 mmHg 58%

    1 June, Thursday

    Time Temperature Precipitation Wind Pressure Humidity
    00:00 +22°C° 0.4 mm 1 mps 749 mmHg 62%
    01:00 +21°C° 0.3 mm 1 mps 749 mmHg 64%
    02:00 +20°C° 0.3 mm 2 mps 749 mmHg 65%
    03:00 +19°C° 0.3 mm 2 mps 748 mmHg 67%
    04:00 +20°C° 0.1 mm 2 mps 749 mmHg 65%
    05:00 +21°C° 0.1 mm 2 mps 749 mmHg 64%
    06:00 +21°C° 0.1 mm 3 mps 749 mmHg 62%
    07:00 +24°C° 0 mm 3 mps 749 mmHg 55%
    08:00 +26°C° 0 mm 3 mps 748 mmHg 49%
    09:00 +28°C° 0 mm 4 mps 748 mmHg 42%
    10:00 +29°C° 0.1 mm 3 mps 748 mmHg 40%
    11:00 +30°C° 0.1 mm 3 mps 747 mmHg 37%
    12:00 +31°C° 0.1 mm 3 mps 747 mmHg 35%
    13:00 +33°C° 0.2 mm 3 mps 746 mmHg 34%
    14:00 +33°C° 0.2 mm 3 mps 746 mmHg 33%
    15:00 +32°C° 0.2 mm 2 mps 746 mmHg 32%
    16:00 +32°C° 0.1 mm 2 mps 746 mmHg 34%
    17:00 +31°C° 0.1 mm 2 mps 746 mmHg 35%
    18:00 +31°C° 0.1 mm 2 mps 746 mmHg 37%
    19:00 +28°C° 0.3 mm 2 mps 747 mmHg 41%
    20:00 +26°C° 0.3 mm 2 mps 748 mmHg 44%
    21:00 +23°C° 0.3 mm 2 mps 748 mmHg 48%
    22:00 +21°C° 0.1 mm 2 mps 748 mmHg 50%
    23:00 +21°C° 0.1 mm 2 mps 748 mmHg 52%

    2 June, Friday

    Time Temperature Precipitation Wind Pressure Humidity
    00:00 +21°C° 0.1 mm 1 mps 748 mmHg 54%
    01:00 +21°C° 0 mm 1 mps 748 mmHg 56%
    02:00 +20°C° 0 mm 1 mps 748 mmHg 59%
    03:00 +20°C° 0 mm 1 mps 748 mmHg 61%
    04:00 +20°C° 0 mm 2 mps 749 mmHg 60%
    05:00 +21°C° 0 mm 2 mps 749 mmHg 58%
    06:00 +23°C° 0 mm 2 mps 749 mmHg 57%
    07:00 +24°C° 0 mm 3 mps 749 mmHg 52%
    08:00 +26°C° 0 mm 3 mps 749 mmHg 46%
    09:00 +28°C° 0 mm 4 mps 749 mmHg 40%
    10:00 +29°C° 0 mm 3 mps 748 mmHg 38%
    11:00 +30°C° 0 mm 3 mps 748 mmHg 36%
    12:00 +31°C° 0 mm 3 mps 748 mmHg 34%
    13:00 +31°C° 0.2 mm 2 mps 747 mmHg 33%
    14:00 +32°C° 0.2 mm 2 mps 747 mmHg 31%
    15:00 +32°C° 0.2 mm 1 mps 747 mmHg 30%
    16:00 +32°C° 0.1 mm 1 mps 747 mmHg 32%
    17:00 +31°C° 0.1 mm 1 mps 748 mmHg 35%
    18:00 +31°C° 0.1 mm 1 mps 748 mmHg 37%
    19:00 +28°C° 0.1 mm 2 mps 748 mmHg 41%
    20:00 +26°C° 0.1 mm 3 mps 749 mmHg 45%
    21:00 +24°C° 0.1 mm 3 mps 749 mmHg 49%
    22:00 +22°C° 0.2 mm 3 mps 749 mmHg 54%
    23:00 +21°C° 0.2 mm 2 mps 749 mmHg 59%
    Show more